Weather History for Klamath Falls, OR

Change the Weather History Date:

Thursday, April 25, 2013

  Actual Average Record
Temperature  
Mean Temperature 50 °F 46 °F  
Max Temperature 74 °F 59 °F 77 °F (2001)
Min Temperature 25 °F 32 °F 21 °F (1998)
Degree Days  
Heating Degree Days 15 19  
Month to date heating degree days 548 564  
Since 1 July heating degree days 5990 6226  
Cooling Degree Days 0 0  
Month to date cooling degree days 0 0  
Year to date cooling degree days 0 0  
Moisture  
Dew Point 27 °F    
Average Humidity 46    
Maximum Humidity 78    
Minimum Humidity 10    
Precipitation  
Precipitation 0.00 in 0.05 in 0.35 in (1989)
Month to date precipitation 1.05 1.06  
Year to date precipitation 2.53 6.10  
Sea Level Pressure  
Sea Level Pressure 30.05 in    
Wind  
Wind Speed 6 mph (NW)    
Max Wind Speed 20 mph    
Max Gust Speed 25 mph    
Visibility 10 miles    
Events      
T = Trace of Precipitation, MM = Missing Value Source: NWS Daily Summary

Daily Weather History Graph

Daily Weather History Graph

Search for Another Location

Airport:

Trip Planner

Search our weather history database for the weather conditions in past years. The results will help you decide how hot, cold, wet, or windy it might be!

Date:

Astronomy

Apr. 25, 2013 Rise Set
Actual Time 6:10 AM PDT 7:59 PM PDT
Civil Twilight 5:40 AM PDT 8:29 PM PDT
Nautical Twilight 5:04 AM PDT 9:06 PM PDT
Astronomical Twilight 4:24 AM PDT 9:45 PM PDT
Moon 8:19 PM PDT (4/25) 5:57 AM PDT (4/25)
Length of Visible Light 14h 49m
Length of Day
13h 49m
Full, 100% of the Moon is Illuminated
Apr 25
Full
Apr 25
Full
May 2
Last Quarter
May 9
New
May 17
First Quarter

Hourly Weather History & Observations

Time (PDT) Temp. Windchill Dew Point Humidity Pressure Visibility Wind Dir Wind Speed Gust Speed Precip Events Conditions
12:53 AM 37.9 °F - 21.0 °F 51% 30.02 in 10.0 mi Calm Calm - N/A   Clear
1:53 AM 36.0 °F - 27.0 °F 70% 30.02 in 10.0 mi Calm Calm - N/A   Clear
2:53 AM 30.9 °F 27.5 °F 25.0 °F 79% 30.02 in 10.0 mi ENE 3.5 mph - N/A   Clear
3:53 AM 32.0 °F - 24.1 °F 73% 30.02 in 10.0 mi Calm Calm - N/A   Clear
4:53 AM 28.0 °F - 21.9 °F 78% 30.03 in 10.0 mi Calm Calm - N/A   Clear
5:53 AM 30.0 °F - 19.9 °F 66% 30.03 in 10.0 mi Calm Calm - N/A   Clear
6:53 AM 28.9 °F - 21.0 °F 72% 30.05 in 10.0 mi Calm Calm - N/A   Clear
7:53 AM 37.9 °F - 25.0 °F 60% 30.06 in 10.0 mi Calm Calm - N/A   Clear
8:53 AM 48.0 °F - 30.9 °F 52% 30.07 in 10.0 mi Calm Calm - N/A   Clear
9:53 AM 53.1 °F - 30.9 °F 43% 30.06 in 10.0 mi Calm Calm - N/A   Clear
10:53 AM 60.1 °F - 28.9 °F 31% 30.04 in 10.0 mi Variable 3.5 mph - N/A   Clear
11:53 AM 62.1 °F - 25.0 °F 24% 30.03 in 10.0 mi Calm Calm - N/A   Clear
12:53 PM 68.0 °F - 10.0 °F 11% 30.02 in 10.0 mi WNW 11.5 mph - N/A   Clear
1:53 PM 70.0 °F - 16.0 °F 13% 30.02 in 10.0 mi NW 12.7 mph - N/A   Clear
2:53 PM 72.0 °F - 21.0 °F 15% 30.02 in 10.0 mi NNW 18.4 mph 23.0 mph N/A   Clear
3:53 PM 73.0 °F - 23.0 °F 15% 30.01 in 10.0 mi NNW 17.3 mph - N/A   Partly Cloudy
4:53 PM 73.0 °F - 27.0 °F 18% 30.01 in 10.0 mi North 17.3 mph 20.7 mph N/A   Partly Cloudy
5:53 PM 69.1 °F - 28.9 °F 22% 30.04 in 10.0 mi NNW 16.1 mph - N/A   Partly Cloudy
6:53 PM 64.9 °F - 35.1 °F 33% 30.07 in 10.0 mi NNW 10.4 mph - N/A   Scattered Clouds
7:53 PM 60.1 °F - 37.0 °F 42% 30.08 in 10.0 mi NW 4.6 mph - N/A   Scattered Clouds
8:53 PM 57.9 °F - 39.0 °F 49% 30.09 in 10.0 mi NW 8.1 mph - N/A   Scattered Clouds
9:53 PM 55.9 °F - 39.0 °F 53% 30.11 in 10.0 mi West 3.5 mph - N/A   Clear
10:53 PM 52.0 °F - 39.9 °F 63% 30.11 in 10.0 mi NW 6.9 mph - N/A   Clear
11:53 PM 46.9 °F - 39.0 °F 74% 30.13 in 10.0 mi Calm Calm - N/A   Clear